When you browse on this site, cookies collect data to enhance your experience and personalize the content and advertising you see.
Visit our Privacy Policy to learn more. By continuing to use the site, you agree to this use of cookies and data.
  • In Spain
  • List of Countries
  • For 7 days
  • Water Temperature
  • Satellite Maps
  • Weather Map
  • Weather Widgets
  • user-avatar
    Login

    Hourly Weather Buenos Aires

    Today, 24 July, Wednesday

    Time Temperature Precipitation Wind Pressure Humidity
    00:00 +9°C° 0 mm 5 mps 770 mmHg 52%
    01:00 +10°C° 0 mm 4 mps 770 mmHg 52%
    02:00 +10°C° 0 mm 4 mps 770 mmHg 52%
    03:00 +8°C° 0 mm 4 mps 770 mmHg 51%
    04:00 +8°C° 0 mm 4 mps 770 mmHg 51%
    05:00 +8°C° 0 mm 4 mps 770 mmHg 50%
    06:00 +8°C° 0 mm 4 mps 770 mmHg 49%
    07:00 +8°C° 0 mm 3 mps 771 mmHg 48%
    08:00 +8°C° 0 mm 3 mps 771 mmHg 47%
    09:00 +9°C° 0 mm 3 mps 771 mmHg 43%
    10:00 +10°C° 0 mm 3 mps 772 mmHg 40%
    11:00 +11°C° 0 mm 3 mps 772 mmHg 37%
    12:00 +12°C° 0 mm 3 mps 772 mmHg 35%
    13:00 +12°C° 0 mm 3 mps 771 mmHg 34%
    14:00 +13°C° 0 mm 3 mps 771 mmHg 33%
    15:00 +12°C° 0 mm 3 mps 771 mmHg 36%
    16:00 +12°C° 0 mm 3 mps 771 mmHg 40%
    17:00 +11°C° 0 mm 3 mps 770 mmHg 43%
    18:00 +11°C° 0 mm 4 mps 771 mmHg 46%
    19:00 +10°C° 0 mm 4 mps 771 mmHg 50%
    20:00 +10°C° 0 mm 4 mps 771 mmHg 53%
    21:00 +10°C° 0 mm 4 mps 771 mmHg 57%
    22:00 +8°C° 0 mm 4 mps 771 mmHg 61%
    23:00 +8°C° 0 mm 4 mps 771 mmHg 64%

    Tomorrow, 25 July, Thursday

    Time Temperature Precipitation Wind Pressure Humidity
    00:00 +8°C° 0 mm 4 mps 771 mmHg 67%
    01:00 +8°C° 0 mm 4 mps 770 mmHg 69%
    02:00 +8°C° 0 mm 4 mps 770 mmHg 72%
    03:00 +8°C° 0 mm 4 mps 770 mmHg 72%
    04:00 +8°C° 0 mm 4 mps 770 mmHg 73%
    05:00 +7°C° 0 mm 5 mps 769 mmHg 74%
    06:00 +8°C° 0 mm 5 mps 769 mmHg 74%
    07:00 +8°C° 0 mm 5 mps 769 mmHg 74%
    08:00 +8°C° 0 mm 5 mps 769 mmHg 75%
    09:00 +9°C° 0.1 mm 5 mps 769 mmHg 75%
    10:00 +9°C° 0.1 mm 6 mps 768 mmHg 76%
    11:00 +10°C° 0.1 mm 6 mps 768 mmHg 76%
    12:00 +10°C° 0.9 mm 6 mps 767 mmHg 78%
    13:00 +10°C° 0.9 mm 6 mps 767 mmHg 79%
    14:00 +10°C° 0.9 mm 6 mps 766 mmHg 81%
    15:00 +9°C° 0.6 mm 6 mps 765 mmHg 82%
    16:00 +9°C° 0.6 mm 6 mps 765 mmHg 83%
    17:00 +9°C° 0.6 mm 6 mps 764 mmHg 83%
    18:00 +9°C° 0.6 mm 6 mps 764 mmHg 85%
    19:00 +10°C° 0.6 mm 6 mps 764 mmHg 87%
    20:00 +10°C° 0.6 mm 6 mps 764 mmHg 89%
    21:00 +10°C° 0.5 mm 6 mps 763 mmHg 89%
    22:00 +10°C° 0.5 mm 6 mps 763 mmHg 90%
    23:00 +9°C° 0.5 mm 6 mps 762 mmHg 90%

    Day after tomorrow, 26 July, Friday

    Time Temperature Precipitation Wind Pressure Humidity
    00:00 +9°C° 0.9 mm 6 mps 762 mmHg 90%
    01:00 +9°C° 0.9 mm 6 mps 761 mmHg 90%
    02:00 +9°C° 0.9 mm 6 mps 761 mmHg 90%
    03:00 +9°C° 0.3 mm 6 mps 761 mmHg 90%
    04:00 +9°C° 0.3 mm 6 mps 761 mmHg 89%
    05:00 +9°C° 0.3 mm 6 mps 760 mmHg 89%
    06:00 +9°C° 0.2 mm 6 mps 761 mmHg 89%
    07:00 +9°C° 0.2 mm 6 mps 761 mmHg 89%
    08:00 +9°C° 0.2 mm 6 mps 762 mmHg 89%
    09:00 +9°C° 0.3 mm 6 mps 762 mmHg 88%
    10:00 +9°C° 0.3 mm 6 mps 762 mmHg 86%
    11:00 +9°C° 0.3 mm 6 mps 763 mmHg 85%
    12:00 +10°C° 0 mm 6 mps 763 mmHg 76%
    13:00 +13°C° 0 mm 5 mps 763 mmHg 67%
    14:00 +14°C° 0 mm 5 mps 763 mmHg 59%
    15:00 +14°C° 0 mm 5 mps 763 mmHg 61%
    16:00 +13°C° 0 mm 4 mps 764 mmHg 63%
    17:00 +13°C° 0 mm 4 mps 764 mmHg 66%
    18:00 +12°C° 0 mm 3 mps 765 mmHg 66%
    19:00 +11°C° 0 mm 3 mps 765 mmHg 66%
    20:00 +11°C° 0 mm 3 mps 765 mmHg 66%
    21:00 +10°C° 0 mm 3 mps 766 mmHg 66%
    22:00 +10°C° 0 mm 3 mps 766 mmHg 66%
    23:00 +10°C° 0 mm 3 mps 767 mmHg 66%

    27 July, Saturday

    Time Temperature Precipitation Wind Pressure Humidity
    00:00 +9°C° 0 mm 3 mps 767 mmHg 66%
    01:00 +9°C° 0 mm 3 mps 767 mmHg 67%
    02:00 +9°C° 0 mm 3 mps 767 mmHg 67%
    03:00 +9°C° 0 mm 2 mps 767 mmHg 68%
    04:00 +8°C° 0 mm 2 mps 767 mmHg 69%
    05:00 +8°C° 0 mm 2 mps 767 mmHg 69%
    06:00 +8°C° 0 mm 2 mps 768 mmHg 69%
    07:00 +10°C° 0 mm 1 mps 768 mmHg 68%
    08:00 +10°C° 0 mm 1 mps 768 mmHg 67%
    09:00 +11°C° 0 mm 1 mps 769 mmHg 60%
    10:00 +13°C° 0 mm 1 mps 769 mmHg 53%
    11:00 +15°C° 0 mm 1 mps 769 mmHg 46%
    12:00 +16°C° 0 mm 1 mps 769 mmHg 43%
    13:00 +18°C° 0 mm 1 mps 768 mmHg 41%
    14:00 +18°C° 0 mm 1 mps 768 mmHg 38%
    15:00 +16°C° 0 mm 1 mps 768 mmHg 42%
    16:00 +15°C° 0 mm 1 mps 768 mmHg 46%
    17:00 +15°C° 0 mm 2 mps 768 mmHg 50%
    18:00 +14°C° 0 mm 2 mps 768 mmHg 54%
    19:00 +13°C° 0 mm 2 mps 768 mmHg 58%
    20:00 +12°C° 0 mm 3 mps 769 mmHg 62%
    21:00 +11°C° 0 mm 3 mps 769 mmHg 68%
    22:00 +11°C° 0 mm 3 mps 768 mmHg 74%
    23:00 +11°C° 0 mm 3 mps 768 mmHg 79%

    28 July, Sunday

    Time Temperature Precipitation Wind Pressure Humidity
    00:00 +10°C° 0 mm 3 mps 768 mmHg 81%
    01:00 +10°C° 0 mm 3 mps 768 mmHg 83%
    02:00 +10°C° 0 mm 3 mps 768 mmHg 84%
    03:00 +10°C° 0 mm 3 mps 768 mmHg 84%
    04:00 +10°C° 0 mm 3 mps 768 mmHg 85%
    05:00 +9°C° 0 mm 3 mps 768 mmHg 85%
    06:00 +10°C° 0 mm 4 mps 768 mmHg 84%
    07:00 +10°C° 0 mm 4 mps 768 mmHg 82%
    08:00 +10°C° 0 mm 4 mps 768 mmHg 81%
    09:00 +11°C° 0 mm 4 mps 768 mmHg 75%
    10:00 +12°C° 0 mm 3 mps 768 mmHg 69%
    11:00 +13°C° 0 mm 3 mps 768 mmHg 63%
    12:00 +14°C° 0 mm 3 mps 767 mmHg 62%
    13:00 +14°C° 0 mm 3 mps 767 mmHg 61%
    14:00 +16°C° 0 mm 2 mps 766 mmHg 60%
    15:00 +14°C° 0 mm 3 mps 766 mmHg 65%
    16:00 +13°C° 0 mm 4 mps 765 mmHg 69%
    17:00 +13°C° 0 mm 4 mps 765 mmHg 73%
    18:00 +13°C° 0 mm 4 mps 765 mmHg 75%
    19:00 +12°C° 0 mm 4 mps 765 mmHg 78%
    20:00 +12°C° 0 mm 4 mps 765 mmHg 80%
    21:00 +12°C° 0 mm 4 mps 765 mmHg 81%
    22:00 +12°C° 0 mm 4 mps 765 mmHg 82%
    23:00 +11°C° 0 mm 3 mps 764 mmHg 83%

    29 July, Monday

    Time Temperature Precipitation Wind Pressure Humidity
    00:00 +11°C° 0 mm 3 mps 764 mmHg 84%
    01:00 +12°C° 0 mm 2 mps 764 mmHg 85%
    02:00 +12°C° 0 mm 1 mps 764 mmHg 86%
    03:00 +12°C° 0 mm 1 mps 764 mmHg 86%
    04:00 +12°C° 0 mm 1 mps 764 mmHg 86%
    05:00 +11°C° 0 mm 0 mps 764 mmHg 85%
    06:00 +12°C° 0 mm 1 mps 764 mmHg 85%
    07:00 +12°C° 0 mm 1 mps 764 mmHg 85%
    08:00 +12°C° 0 mm 2 mps 764 mmHg 85%
    09:00 +13°C° 0 mm 1 mps 764 mmHg 76%
    10:00 +15°C° 0 mm 1 mps 764 mmHg 67%
    11:00 +16°C° 0 mm 1 mps 764 mmHg 57%
    12:00 +18°C° 0 mm 1 mps 764 mmHg 55%
    13:00 +18°C° 0 mm 1 mps 763 mmHg 54%
    14:00 +19°C° 0 mm 1 mps 763 mmHg 52%
    15:00 +18°C° 0 mm 1 mps 763 mmHg 56%
    16:00 +16°C° 0 mm 1 mps 763 mmHg 60%
    17:00 +15°C° 0 mm 1 mps 763 mmHg 63%
    18:00 +15°C° 0 mm 1 mps 763 mmHg 66%
    19:00 +14°C° 0 mm 1 mps 763 mmHg 69%
    20:00 +14°C° 0 mm 1 mps 763 mmHg 71%
    21:00 +13°C° 0 mm 1 mps 763 mmHg 73%
    22:00 +12°C° 0 mm 0 mps 763 mmHg 74%
    23:00 +11°C° 0 mm 0 mps 763 mmHg 76%
    Show more